[[[{"header":{"parameterUnit":"kt","parameterCategory":2,"dx":1,"dy":1,"la1":30.253999710083008,"la2":30.299108505249023,"lo1":-89.0895004272461,"lo2":-89.04439544677734,"nx":28,"ny":28,"refTime":"2022-09-21T09:00:00:Z","depth":0,"parameterNumber":1,"parameterNumberName":"U-component_of_WINDS"},"data":[-0.7049,-0.6938,-0.6925,-0.6791,-0.6756,-0.6663,-0.6624,-0.6574,-0.6529,-0.6415,-0.6347,-0.632,-0.627,-0.6184,-0.6108,-0.6098,-0.6067,-0.6038,-0.6031,-0.6173,-0.6192,-0.621,-0.6235,-0.6032,-0.6031,-0.5884,-0.5883,-0.5882,-0.7156,-0.712,-0.7046,-0.6965,-0.6901,-0.692,-0.6857,-0.6801,-0.6716,-0.6661,-0.6593,-0.6491,-0.6408,-0.6366,-0.6283,-0.623,-0.6233,-0.6208,-0.6211,-0.6203,-0.6355,-0.6382,-0.6207,-0.6207,-0.6207,-0.6207,-0.6207,-0.6207,-0.7346,-0.728,-0.7223,-0.7142,-0.7097,-0.7043,-0.6977,-0.6947,-0.6873,-0.6786,-0.6783,-0.6686,-0.6627,-0.652,-0.6481,-0.6404,-0.6429,-0.6396,-0.6388,-0.6379,-0.6372,-0.6585,-0.6389,-0.639,-0.639,-0.6391,-0.6391,0,-0.7481,-0.7474,-0.7402,-0.7325,-0.7265,-0.7204,-0.7146,-0.7105,-0.7084,-0.7023,-0.6935,-0.6881,-0.6775,-0.6689,-0.6608,-0.6573,-0.6585,-0.6585,-0.6562,-0.6561,-0.6571,-0.6563,-0.6811,-0.659,-0.6591,-0.6593,-0.6594,-0.6594,-0.767,-0.7596,-0.7529,-0.748,-0.7445,-0.7366,-0.7315,-0.7303,-0.725,-0.7175,-0.7117,-0.7031,-0.6962,-0.6821,-0.6785,-0.6704,-0.6709,-0.6626,-0.6697,-0.67,-0.6706,-0.671,-0.6701,-0.6612,-0.6609,-0.6608,-0.6606,0,-0.7778,-0.7756,-0.7635,-0.7576,-0.7559,-0.7481,-0.743,-0.7363,-0.7341,-0.7245,-0.7222,-0.7186,-0.7098,-0.7075,-0.697,-0.6961,-0.6829,-0.6837,-0.685,-0.6849,-0.6772,-0.6779,-0.6526,-0.6492,-0.6704,-0.6702,-0.67,0,-0.793,-0.7832,-0.7805,-0.7736,-0.7626,-0.7616,-0.7508,-0.7478,-0.7427,-0.7352,-0.7363,-0.7292,-0.7274,-0.7199,-0.7184,-0.7073,-0.7054,-0.7039,-0.7036,-0.7037,-0.7038,-0.7006,-0.7015,-0.7034,-0.7035,-0.7037,-0.7038,0,-0.81,-0.7971,-0.7859,-0.7825,-0.7752,-0.7699,-0.7666,-0.761,-0.756,-0.7492,-0.7459,-0.7381,-0.7337,-0.7275,-0.7258,-0.7306,-0.7121,-0.7185,-0.7106,-0.7106,-0.7064,-0.7067,-0.6851,-0.7039,-0.704,-0.704,-0.7041,0,-0.8218,-0.8152,-0.7993,-0.7933,-0.7899,-0.7825,-0.7747,-0.7679,-0.7618,-0.7605,-0.7551,-0.7555,-0.7457,-0.7521,-0.7385,-0.7453,-0.7409,-0.7387,-0.7381,-0.7368,-0.7441,-0.732,-0.7118,-0.7095,-0.736,-0.7363,-0.7365,0,-0.8418,-0.8253,-0.8243,-0.8092,-0.8013,-0.8031,-0.7949,-0.7895,-0.787,-0.7798,-0.777,-0.7688,-0.7731,-0.7701,-0.7638,-0.7605,-0.7516,-0.7617,-0.751,-0.7506,-0.7524,-0.7339,-0.7313,-0.7165,-0.7399,-0.7395,-0.7393,0,-0.8569,-0.8482,-0.8456,-0.8417,-0.8345,-0.8278,-0.8184,-0.8101,-0.8053,-0.7991,-0.791,-0.7795,-0.7822,-0.7773,-0.7768,-0.7702,-0.7576,-0.774,-0.7738,-0.771,-0.7415,-0.7391,-0.7366,-0.7587,-0.7582,-0.7579,-0.742,0,-0.8751,-0.8666,-0.8595,-0.8509,-0.8455,-0.8359,-0.8336,-0.8281,-0.8282,-0.8258,-0.814,-0.8088,-0.8002,-0.7968,-0.7968,-0.7826,-0.7845,-0.7875,-0.7934,-0.7814,-0.776,-0.7739,-0.8016,-0.8018,-0.8019,-0.802,0,0,-0.8946,-0.8823,-0.8816,-0.8724,-0.8677,-0.8697,-0.8597,-0.8554,-0.8464,-0.8431,-0.8465,-0.8293,-0.8249,-0.8107,-0.8068,-0.8033,-0.8005,-0.8048,-0.7872,-0.7855,-0.784,-0.7783,-0.7761,-0.8022,-0.8023,-0.8023,-0.8024,0,-0.9007,-0.8966,-0.8868,-0.8823,-0.8756,-0.8736,-0.8712,-0.8649,-0.8628,-0.8513,-0.8529,-0.8455,-0.8318,-0.8269,-0.8226,-0.8065,-0.808,-0.8041,-0.7961,-0.7886,-0.7868,-0.7852,-0.7793,-0.7772,-0.8027,-0.8027,-0.8027,0,-0.9151,-0.9105,-0.9056,-0.8952,-0.8908,-0.8825,-0.8882,-0.8793,-0.8731,-0.8755,-0.8639,-0.8607,-0.854,-0.841,-0.835,-0.8378,-0.815,-0.8218,-0.8209,-0.8201,-0.8127,-0.8105,-0.8086,-0.8341,-0.8343,-0.8344,0,0,-0.9206,-0.9128,-0.9074,-0.8963,-0.8934,-0.8903,-0.8856,-0.8852,-0.8793,-0.8769,-0.8728,-0.8668,-0.8588,-0.8536,-0.8459,-0.832,-0.8304,-0.8258,-0.8243,-0.8231,-0.8217,-0.8139,-0.8118,-0.8348,-0.8348,-0.8349,0,0,-0.9232,-0.9167,-0.9179,-0.9047,-0.8991,-0.8929,-0.8861,-0.8874,-0.8803,-0.8811,-0.8799,-0.8782,-0.866,-0.8627,-0.8691,-0.848,-0.8539,-0.8523,-0.8505,-0.8486,-0.8471,-0.8481,-0.8741,0,0,0,0,0,-0.9283,-0.9175,-0.9187,-0.9161,-0.9029,-0.8923,-0.8906,-0.8894,-0.8937,-0.8883,-0.8851,-0.8871,-0.8659,-0.8715,-0.8689,-0.8618,-0.8407,-0.8396,-0.8387,-0.833,-0.8311,-0.8294,0,0,0,0,0,0,-0.9273,-0.9242,-0.919,-0.9124,-0.9094,-0.8927,-0.8996,-0.899,-0.8942,-0.8948,-0.8876,-0.8868,-0.8855,-0.8728,-0.8704,-0.8637,-0.8748,-0.8403,-0.8394,-0.8386,-0.8324,-0.8308,-0.8294,0,0,0,0,0,-0.9265,-0.924,-0.903,-0.9126,-0.9099,-0.9058,-0.9,-0.8996,-0.8958,-0.8907,-0.89,-0.8954,-0.8854,-0.8833,-0.8714,-0.8647,-0.8764,-0.8756,-0.8397,-0.839,-0.8384,-0.8316,0,0,0,0,0,0,-0.9259,-0.9234,-0.9025,-0.9016,-0.9166,-0.9067,-0.9052,-0.9,-0.8921,-0.8912,-0.8985,-0.899,-0.8851,-0.8836,-0.882,-0.8652,-0.8777,-0.8769,-0.8763,-0.8392,-0.8386,-0.8381,0,0,0,0,0,0,-0.9247,-0.9227,-0.902,-0.9072,-0.9069,-0.9076,-0.9062,-0.8958,-0.8919,-0.9002,-0.9004,-0.8988,-0.8875,-0.8837,-0.8825,-0.8664,-0.8787,-0.8779,-0.8773,-0.877,-0.8387,-0.8383,0,0,0,0,0,0,-0.9238,-0.9221,-0.9074,-0.9072,-0.907,-0.8974,-0.8984,-0.8848,-0.8965,-0.9005,-0.8975,-0.898,-0.8875,-0.8863,-0.8828,-0.8672,-0.8666,-0.8787,-0.8781,-0.8777,-0.8775,0,0,0,0,0,0,0,-0.9231,-0.9353,-0.9075,-0.9072,-0.907,-0.8938,-0.8936,-0.8934,-0.8966,-0.897,-0.8974,-0.8978,-0.8835,-0.8826,-0.8817,-0.8679,0,0,-0.8788,-0.8784,0,0,0,0,0,0,0,0,-0.9361,-0.9355,-0.9075,-0.9073,-0.9071,-0.8938,-0.8936,-0.8934,-0.8967,-0.897,-0.8973,-0.8976,-0.8833,-0.8826,-0.8818,0,0,0,0,0,0,0,0,0,0,0,0,0,0,0,-0.9075,-0.9073,0,-0.8938,-0.8936,-0.8935,-0.8967,-0.897,-0.8973,-0.8975,-0.8831,-0.8825,-0.8819,0,0,0,0,0,0,0,0,0,0,0,0,0,0,0,0,0,0,0,0,0,0,0,0,0,0,0,0,0,0,0,0,0,0,0,0,0,0,0,0,0,0,0,0,0,0,0,0,0,0,0,0,0,0,0,0,0,0,0,0,0,0,0,0,0,0,0,0,0]}],[{"header":{"parameterUnit":"kt","parameterCategory":2,"dx":1,"dy":1,"la1":30.253999710083008,"la2":30.299108505249023,"lo1":-89.0895004272461,"lo2":-89.04439544677734,"nx":28,"ny":28,"refTime":"2022-09-21T09:00:00:Z","depth":0,"parameterNumber":2,"parameterNumberName":"V-component_of_WINDS"},"data":[-2.0078,-1.9966,-1.9949,-1.9813,-1.9773,-1.9677,-1.9636,-1.9581,-1.9532,-1.9414,-1.9342,-1.9309,-1.925,-1.9159,-1.9079,-1.9066,-1.9035,-1.9013,-1.9001,-1.912,-1.9135,-1.9149,-1.9177,-1.9005,-1.9005,-1.8883,-1.8882,-1.8881,-2.018,-2.0141,-2.0062,-1.9972,-1.9905,-1.9918,-1.9846,-1.9789,-1.9701,-1.9637,-1.9564,-1.9456,-1.9367,-1.9313,-1.9224,-1.9171,-1.917,-1.9149,-1.9154,-1.9145,-1.9271,-1.93,-1.9151,-1.9152,-1.9152,-1.9152,-1.9152,-1.9152,-2.0362,-2.0294,-2.0229,-2.0142,-2.0091,-2.003,-1.9961,-1.9922,-1.9842,-1.9746,-1.9734,-1.9632,-1.9563,-1.944,-1.9393,-1.9313,-1.9332,-1.9301,-1.9294,-1.9287,-1.9286,-1.9478,-1.9295,-1.9295,-1.9296,-1.9296,-1.9296,0,-2.049,-2.048,-2.0399,-2.0316,-2.025,-2.018,-2.0113,-2.0069,-2.0032,-1.9966,-1.9869,-1.9809,-1.969,-1.9596,-1.9504,-1.9459,-1.9462,-1.9456,-1.9436,-1.9444,-1.9466,-1.946,-1.9671,-1.9461,-1.9463,-1.9464,-1.9464,-1.9465,-2.0677,-2.0596,-2.0515,-2.0462,-2.0419,-2.0331,-2.0275,-2.0247,-2.0188,-2.0098,-2.0037,-1.9941,-1.9863,-1.9707,-1.9656,-1.9565,-1.9565,-1.949,-1.9551,-1.9565,-1.9571,-1.9578,-1.9572,-1.9479,-1.9477,-1.9476,-1.9474,0,-2.0786,-2.0751,-2.0618,-2.0542,-2.052,-2.0437,-2.0371,-2.0298,-2.0265,-2.016,-2.0134,-2.008,-1.9982,-1.9943,-1.982,-1.9803,-1.9669,-1.9668,-1.9697,-1.9696,-1.9629,-1.9637,-1.9403,-1.9373,-1.9546,-1.9544,-1.9543,0,-2.0933,-2.0825,-2.078,-2.0704,-2.0586,-2.056,-2.0442,-2.0401,-2.0337,-2.0255,-2.025,-2.0172,-2.0132,-2.0048,-2.0021,-1.9903,-1.9877,-1.9859,-1.9853,-1.9861,-1.9864,-1.9829,-1.9839,-1.9836,-1.9838,-1.9839,-1.984,0,-2.111,-2.0955,-2.0831,-2.0789,-2.0694,-2.0636,-2.0592,-2.0519,-2.0461,-2.0378,-2.0341,-2.0245,-2.0193,-2.012,-2.0087,-2.0131,-1.9939,-1.9992,-1.992,-1.9921,-1.988,-1.9883,-1.9685,-1.9841,-1.9841,-1.9842,-1.9842,0,-2.1223,-2.1142,-2.0964,-2.0887,-2.0846,-2.0761,-2.0668,-2.0586,-2.0508,-2.0486,-2.0419,-2.041,-2.0298,-2.0357,-2.0204,-2.0273,-2.0222,-2.0192,-2.0186,-2.0175,-2.0242,-2.0141,-1.9952,-1.9933,-2.0166,-2.0168,-2.0171,0,-2.144,-2.1248,-2.1224,-2.1053,-2.096,-2.0965,-2.0869,-2.0798,-2.0761,-2.0676,-2.0633,-2.0532,-2.0566,-2.0528,-2.0458,-2.0409,-2.032,-2.0419,-2.0299,-2.0295,-2.0327,-2.0152,-2.0136,-1.9998,-2.0204,-2.0201,-2.0198,0,-2.1602,-2.1484,-2.1454,-2.1408,-2.1308,-2.1226,-2.1115,-2.1011,-2.0957,-2.0873,-2.0782,-2.0635,-2.0657,-2.0593,-2.0572,-2.0501,-2.038,-2.0532,-2.0529,-2.0511,-2.0215,-2.0202,-2.0179,-2.0382,-2.0378,-2.0375,-2.0225,0,-2.1794,-2.1689,-2.1606,-2.1495,-2.1424,-2.1311,-2.1267,-2.12,-2.1191,-2.1152,-2.1012,-2.0935,-2.0823,-2.0781,-2.0767,-2.0615,-2.0634,-2.0655,-2.0709,-2.0592,-2.0542,-2.0521,-2.0789,-2.079,-2.0791,-2.0792,0,0,-2.2012,-2.186,-2.1832,-2.1723,-2.1663,-2.1665,-2.1549,-2.1489,-2.1365,-2.1324,-2.1353,-2.1136,-2.1069,-2.0904,-2.0863,-2.0814,-2.0785,-2.0824,-2.0647,-2.0631,-2.0616,-2.0563,-2.0542,-2.0793,-2.0794,-2.0794,-2.0795,0,-2.2073,-2.201,-2.1894,-2.1832,-2.1738,-2.1702,-2.1674,-2.1579,-2.1548,-2.1407,-2.1408,-2.1317,-2.1137,-2.1072,-2.1014,-2.0844,-2.0849,-2.0812,-2.0739,-2.0659,-2.0642,-2.0626,-2.0571,-2.0551,-2.0797,-2.0797,-2.0797,0,-2.223,-2.2162,-2.2099,-2.1958,-2.1894,-2.1792,-2.184,-2.1727,-2.1652,-2.1653,-2.1512,-2.1462,-2.1366,-2.1211,-2.1139,-2.1163,-2.0911,-2.0977,-2.0969,-2.096,-2.088,-2.0859,-2.0841,-2.1086,-2.1087,-2.1089,0,0,-2.2288,-2.2188,-2.2103,-2.1967,-2.1927,-2.1869,-2.1808,-2.1791,-2.1706,-2.1672,-2.1606,-2.1522,-2.1419,-2.1351,-2.125,-2.1085,-2.1064,-2.1015,-2.1002,-2.0991,-2.0976,-2.0893,-2.0872,-2.1093,-2.1093,-2.1093,0,0,-2.2315,-2.2212,-2.2217,-2.2053,-2.1975,-2.1878,-2.1797,-2.1799,-2.1704,-2.1711,-2.1672,-2.1648,-2.1501,-2.1449,-2.1518,-2.1269,-2.1322,-2.1304,-2.1308,-2.129,-2.1276,-2.1293,-2.1552,0,0,0,0,0,-2.2354,-2.2226,-2.2232,-2.2197,-2.2012,-2.1876,-2.1852,-2.1819,-2.1861,-2.1798,-2.1745,-2.1751,-2.148,-2.154,-2.1505,-2.1428,-2.1153,-2.1143,-2.1133,-2.1098,-2.108,-2.1065,0,0,0,0,0,0,-2.234,-2.2298,-2.2235,-2.2134,-2.2092,-2.188,-2.1944,-2.1932,-2.1867,-2.1871,-2.1762,-2.1748,-2.1715,-2.1555,-2.1524,-2.1452,-2.1562,-2.1149,-2.114,-2.1132,-2.1092,-2.1077,-2.1064,0,0,0,0,0,-2.2329,-2.2295,-2.2008,-2.2136,-2.2099,-2.2026,-2.1949,-2.1939,-2.1888,-2.1802,-2.1788,-2.1869,-2.1714,-2.1685,-2.1537,-2.1467,-2.1583,-2.1572,-2.1143,-2.1136,-2.113,-2.1085,0,0,0,0,0,0,-2.2321,-2.2284,-2.1999,-2.1987,-2.2181,-2.2037,-2.2013,-2.1945,-2.1822,-2.1807,-2.1908,-2.1912,-2.1711,-2.1689,-2.1667,-2.1475,-2.1601,-2.1589,-2.1582,-2.1138,-2.1132,-2.1127,0,0,0,0,0,0,-2.2302,-2.2273,-2.1993,-2.2052,-2.2046,-2.2047,-2.2026,-2.1893,-2.182,-2.1934,-2.1934,-2.1911,-2.1743,-2.1692,-2.1675,-2.1467,-2.1614,-2.1603,-2.1595,-2.159,-2.1133,-2.1129,0,0,0,0,0,0,-2.2289,-2.2265,-2.2055,-2.205,-2.2045,-2.1904,-2.1928,-2.174,-2.1874,-2.1939,-2.1885,-2.189,-2.1745,-2.1727,-2.168,-2.148,-2.147,-2.1614,-2.1606,-2.1601,-2.1597,0,0,0,0,0,0,0,-2.2279,-2.2451,-2.2073,-2.2049,-2.2045,-2.1873,-2.187,-2.1866,-2.1876,-2.188,-2.1884,-2.1888,-2.1678,-2.1665,-2.1653,-2.149,0,0,-2.1615,-2.1609,0,0,0,0,0,0,0,0,-2.2461,-2.2453,-2.2073,-2.207,-2.2068,-2.1873,-2.187,-2.1867,-2.1876,-2.188,-2.1883,-2.1887,-2.1674,-2.1664,-2.1654,0,0,0,0,0,0,0,0,0,0,0,0,0,0,0,-2.2072,-2.207,0,-2.1872,-2.187,-2.1868,-2.1877,-2.188,-2.1882,-2.1885,-2.1671,-2.1663,-2.1655,0,0,0,0,0,0,0,0,0,0,0,0,0,0,0,0,0,0,0,0,0,0,0,0,0,0,0,0,0,0,0,0,0,0,0,0,0,0,0,0,0,0,0,0,0,0,0,0,0,0,0,0,0,0,0,0,0,0,0,0,0,0,0,0,0,0,0,0,0]}]]]